Flag for U.S.A. Weather past 2 weeks in Springfield, Massachusetts, U.S.A.

Now
37 °F

Passing clouds.


Feels Like: 30 °F
Forecast: 34 / 47 °F
Wind: 9 mph from Northwest

Location: Barnes Municipal Airport

Current Time: Mar 31, 2015 at 7:55:36 AM

Latest Report: Mar 31, 2015 at 6:53 AM


Visibility: 10 mi

Pressure: 29.79 "Hg

Humidity: 62%

Dew point: 25 °F

Location of SpringfieldLocation

Historic Weather in Springfield — Graph

°F

Springfield temperature yesterday

Maximum temperature yesterday: 47 °F (at 5:53 PM)
Minimum temperature yesterday: 27 °F (at 12:53 AM)
Average temperature yesterday: 37 °F

Past Weeks' High & Low Weather Summary

 TemperatureHumidityPressure
High48 °F (Mar 16, 3:53 PM)97% (Mar 26, 10:53 AM)30.42 "Hg (Mar 26, 10:53 AM)
Low15 °F (Mar 19, 1:53 AM)16% (Mar 29, 3:53 PM)29.47 "Hg (Mar 17, 2:53 PM)
Average32 °F58%30.01 "Hg
* Reported Mar 16 6:53 AM — Mar 31 6:53 AM, Springfield, Weather by CustomWeather, © 2015

Note: Actual official high and low records may vary slightly from our data, if they occured in-between our weather recording intervals... More about our weather records

Advertising

Springfield weather history for previous 24 hours

 ConditionsComfort  
Time TempWeatherWind HumidityBarometerVisibility
6:53 AM
Tue, Mar 31
37 °FPassing clouds.9 mph62%29.79 "Hg10 mi
5:53 AM37 °FClear.9 mph60%29.77 "Hg10 mi
4:53 AM39 °FOvercast.8 mph57%29.77 "Hg10 mi
3:53 AM36 °FPassing clouds.3 mph64%29.76 "Hg10 mi
2:53 AM33 °FPassing clouds.5 mph78%29.76 "Hg10 mi
1:53 AM34 °FClear.7 mph79%29.77 "Hg10 mi
12:53 AM37 °FPartly cloudy.No wind67%29.78 "Hg10 mi
11:53 PM
Mon, Mar 30
32 °FClear.6 mph82%29.78 "Hg10 mi
9:53 PM39 °FPartly cloudy.7 mph62%29.79 "Hg10 mi
8:53 PM39 °FClear.8 mph60%29.78 "Hg10 mi
7:53 PM42 °FScattered clouds.6 mph51%29.76 "Hg10 mi
6:53 PM45 °FMostly cloudy.9 mph45%29.75 "Hg10 mi
5:53 PM47 °FBroken clouds.7 mph46%29.73 "Hg10 mi
4:53 PM46 °FOvercast.13 mph46%29.73 "Hg10 mi
2:53 PM46 °FOvercast.15 mph50%29.72 "Hg10 mi
1:53 PM44 °FOvercast.13 mph55%29.73 "Hg10 mi
11:53 AM38 °FMore clouds than sun.16 mph70%29.78 "Hg10 mi
10:53 AM36 °FMostly cloudy.14 mph70%29.82 "Hg10 mi
9:53 AM34 °FOvercast.13 mph73%29.85 "Hg10 mi
8:53 AM33 °FMostly cloudy.14 mph66%29.86 "Hg10 mi
Weather by CustomWeather, © 2015

See weather overviewHow to use our weather pages